Location: Unspecified
(48.5670°N, 0.0000°E)
Time: 19:09:42
(UTC+00:00)

Vanguard 2 Rocket - All Passes

Search period start: 25 August 2019 00:00
Search period end: 04 September 2019 00:00
Orbit: 553 x 3327 km, 32.9° (Epoch: 24 August)

Date Brightness Start Highest point End Pass type
(mag) Time Alt. Az. Time Alt. Az. Time Alt. Az.
25 Aug - 01:03:57 10° S 01:11:36 22° SE 01:22:14 10° E visible
25 Aug - 03:13:26 10° SW 03:24:50 41° SSE 03:41:38 10° ESE visible
25 Aug - 05:26:01 10° WSW 05:40:14 45° S 05:58:35 10° SE daylight
25 Aug - 07:41:08 10° W 07:56:00 32° SSW 08:12:02 10° SSE daylight
25 Aug - 10:03:05 10° WSW 10:10:15 13° SW 10:17:17 10° SSW daylight
26 Aug - 00:07:36 10° SSE 00:12:18 14° SE 00:18:04 10° ESE visible
26 Aug - 02:14:45 10° SW 02:24:29 35° SSE 02:39:11 10° E visible
26 Aug - 04:26:19 10° WSW 04:39:04 45° S 04:57:02 10° ESE visible
26 Aug - 06:40:16 10° W 06:54:50 37° SSW 07:12:04 10° SE daylight
26 Aug - 08:58:15 10° WSW 09:09:47 19° SW 09:21:31 10° S daylight
27 Aug - 01:16:34 10° SSW 01:24:35 27° SSE 01:36:28 10° E visible
27 Aug - 03:27:02 10° WSW 03:38:14 43° S 03:55:03 10° ESE visible
27 Aug - 05:39:59 10° WSW 05:53:38 41° SSW 06:11:22 10° SE daylight
27 Aug - 07:55:53 10° W 08:09:01 25° SW 08:23:21 10° S daylight
28 Aug - 00:19:10 10° S 00:25:10 19° SE 00:33:22 10° ESE visible
28 Aug - 02:28:10 10° SW 02:37:48 38° SSE 02:52:47 10° ESE visible
28 Aug - 04:40:12 10° WSW 04:52:34 42° S 05:10:03 10° SE visible
28 Aug - 06:54:39 10° W 07:08:03 31° SSW 07:23:57 10° SSE daylight
28 Aug - 09:16:12 10° WSW 09:22:34 12° SW 09:29:05 10° SSW daylight
28 Aug - 23:24:01 10° SE 23:26:07 11° SE 23:28:27 10° ESE visible
29 Aug - 01:29:43 10° SSW 01:37:48 32° SSE 01:50:20 10° ESE visible
29 Aug - 03:40:50 10° WSW 03:51:44 42° S 04:08:16 10° ESE visible
29 Aug - 05:54:10 10° WSW 06:07:01 35° SSW 06:23:40 10° SE daylight
29 Aug - 08:11:36 10° WSW 08:22:01 18° SW 08:33:19 10° S daylight
30 Aug - 00:31:48 10° SSW 00:38:15 24° SSE 00:47:44 10° ESE visible
30 Aug - 02:41:50 10° SW 02:51:17 39° S 03:06:11 10° ESE visible
30 Aug - 04:54:16 10° WSW 05:06:04 38° SSW 05:22:42 10° SE daylight
30 Aug - 07:09:34 10° WSW 07:21:15 23° SSW 07:34:57 10° S daylight
30 Aug - 23:34:46 10° S 23:39:06 15° SE 23:44:41 10° ESE visible
31 Aug - 01:43:12 10° SW 01:51:13 34° SSE 02:03:56 10° ESE visible
31 Aug - 03:54:47 10° WSW 04:05:19 39° S 04:21:12 10° SE visible
31 Aug - 06:08:42 10° WSW 06:20:24 28° SSW 06:35:19 10° SSE daylight
31 Aug - 08:30:43 10° WSW 08:35:01 11° SW 08:39:29 10° SSW daylight
01 Sep - 00:44:57 10° SSW 00:51:33 28° SSE 01:01:39 10° ESE visible
01 Sep - 02:55:42 10° WSW 03:04:52 38° S 03:19:21 10° ESE visible
01 Sep - 05:08:35 10° WSW 05:19:35 32° SSW 05:34:50 10° SE daylight
01 Sep - 07:25:42 10° WSW 07:34:27 16° SW 07:44:21 10° S daylight
01 Sep - 23:47:16 10° SSW 23:52:17 20° SSE 23:59:17 10° ESE visible
02 Sep - 01:56:55 10° SW 02:04:46 35° S 02:17:21 10° ESE visible
02 Sep - 04:08:57 10° WSW 04:18:56 34° SSW 04:33:44 10° SE visible
02 Sep - 06:23:53 10° WSW 06:33:46 21° SSW 06:45:58 10° S daylight
02 Sep - 22:50:55 10° SSE 22:53:19 12° SE 22:56:06 10° ESE visible
03 Sep - 00:58:29 10° SW 01:05:03 30° SSE 01:15:19 10° ESE visible
03 Sep - 03:09:45 10° WSW 03:18:32 35° S 03:32:14 10° SE visible
03 Sep - 05:23:17 10° WSW 05:33:07 25° SSW 05:46:16 10° SSE daylight
